Overview Statistics Trail Chart Weather Telemetry Raw packets
 

This is the latest recevied weather packets stored in our database for station/object CT4TX-13. If no packets are shown the sender has not sent any weather packets the latest 10 day(s).

<< 36 37 38 39 40 41 42 >>
Time Temp. Humidity Pressure Rain* Wind** Luminosity Snow
1788069370 29.44° C 50% 1014.8 hPa - - - -
1788068770 29.44° C 49% 1014.7 hPa - - - -
1788068170 29.44° C 50% 1014.7 hPa - - - -
1788067570 29.44° C 49% 1014.6 hPa - - - -
1788066970 29.44° C 49% 1014.6 hPa - - - -
1788066382 29.44° C 49% 1014.5 hPa - - - -
1788065770 29.44° C 48% 1014.5 hPa - - - -
1788065170 29.44° C 49% 1014.7 hPa - - - -
1788064570 29.44° C 49% 1014.6 hPa - - - -
1788063970 29.44° C 49% 1014.5 hPa - - - -
1788063370 29.44° C 47% 1014.5 hPa - - - -
1788062770 29.44° C 49% 1014.4 hPa - - - -
1788062170 29.44° C 48% 1014.5 hPa - - - -
1788061570 29.44° C 48% 1014.6 hPa - - - -
1788060970 29.44° C 48% 1014.6 hPa - - - -
1788060370 29.44° C 48% 1014.8 hPa - - - -
1788059770 29.44° C 48% 1014.8 hPa - - - -
1788059170 29.44° C 48% 1014.9 hPa - - - -
1788058570 29.44° C 48% 1014.9 hPa - - - -
1788057970 29.44° C 48% 1015 hPa - - - -
1788057370 29.44° C 48% 1015 hPa - - - -
1788056770 29.44° C 49% 1015 hPa - - - -
1788056170 29.44° C 46% 1015 hPa - - - -
1788055570 29.44° C 48% 1015.1 hPa - - - -
1788054970 29.44° C 48% 1015.2 hPa - - - -

* Rain since midnight (hover to see other rain measurements)
** Current wind speed in m/s (hover to see current wind gust speed)